Flag for Rwanda Weather past 2 weeks in Gitarama, Rwanda

Now
66 °F

Passing clouds.


Feels Like: 66 °F
Forecast: 63 / 73 °F
Wind: 3 mph from Northwest

Location: Kigali Airport

Current Time: Mar 29, 2015 at 7:39:11 PM

Latest Report: Mar 29, 2015 at 7:30 PM


Visibility: N/A

Pressure: 30.12 "Hg

Humidity: 100%

Dew point: 66 °F

Location of GitaramaLocation

Historic Weather in Gitarama — Graph

°F

Gitarama temperature yesterday

Maximum temperature yesterday: 82 °F (at 3:00 PM)
Minimum temperature yesterday: 64 °F (at 5:00 AM)
Average temperature yesterday: 71 °F

Past Weeks' High & Low Weather Summary

 TemperatureHumidityPressure
High90 °F (Mar 16, 2:30 PM)100% (Mar 15, 2:00 AM)30.21 "Hg (Mar 15, 2:00 AM)
Low59 °F (Mar 16, 6:30 AM)22% (Mar 16, 4:00 PM)29.95 "Hg (Mar 18, 3:30 PM)
Average72 °F78%30.08 "Hg
* Reported Mar 14 6:00 PM — Mar 29 6:30 PM, Gitarama, Weather by CustomWeather, © 2015

Note: Actual official high and low records may vary slightly from our data, if they occured in-between our weather recording intervals... More about our weather records

Advertising

Gitarama weather history for previous 24 hours

 ConditionsComfort  
Time TempWeatherWind HumidityBarometerVisibility
6:30 PM
Sun, Mar 29
66 °FPartly cloudy.3 mphN/A30.12 "HgN/A
6:00 PM68 °FScattered clouds.5 mph94%30.12 "HgN/A
5:30 PM70 °FScattered clouds.No wind88%30.09 "HgN/A
5:00 PM70 °FScattered clouds.No wind83%30.09 "HgN/A
4:30 PM70 °FScattered clouds.No wind88%30.09 "HgN/A
4:00 PM68 °FScattered clouds.5 mph88%30.09 "HgN/A
3:30 PM68 °FPartly sunny.5 mph88%30.09 "HgN/A
3:00 PM68 °FPartly sunny.7 mph94%30.09 "HgN/A
2:00 PM64 °FLight rain. Partly sunny.5 mph100%30.09 "HgN/A
1:30 PM64 °FLight rain. Scattered clouds.No wind100%30.12 "Hg6 mi
1:00 PM63 °FLight rain. Scattered clouds.3 mph100%30.12 "Hg5 mi
11:30 AM63 °FThunderstorms. Partly sunny.8 mph100%30.21 "HgN/A
11:11 AM64 °FThunderstorms. Partly sunny.12 mph100%30.21 "Hg5 mi
11:00 AM70 °FLight rain. Partly sunny.8 mph88%30.21 "HgN/A
10:30 AM70 °FBroken clouds.5 mph94%30.21 "HgN/A
10:00 AM68 °FBroken clouds.3 mph94%30.21 "HgN/A
9:30 AM68 °FBroken clouds.No wind100%30.18 "HgN/A
9:00 AM68 °FBroken clouds.3 mph100%30.18 "HgN/A
8:30 AM66 °FBroken clouds.No wind100%30.18 "HgN/A
8:00 AM66 °FBroken clouds.No wind100%30.15 "HgN/A
7:30 AM66 °FBroken clouds.No wind100%30.15 "HgN/A
7:00 AM64 °FBroken clouds.No wind100%30.15 "Hg5 mi
6:30 AM64 °FBroken clouds.No wind100%30.12 "Hg5 mi
6:00 AM64 °FPartly cloudy.No wind100%30.12 "Hg5 mi
5:30 AM64 °FPassing clouds.No wind100%30.09 "Hg5 mi
5:00 AM64 °FPassing clouds.No wind100%30.09 "Hg5 mi
4:30 AM64 °FPassing clouds.No wind100%30.07 "HgN/A
4:00 AM64 °FPassing clouds.No wind100%30.07 "HgN/A
3:30 AM64 °FPassing clouds.No wind100%30.07 "HgN/A
3:00 AM66 °FPartly cloudy.No wind100%30.07 "HgN/A
2:30 AM66 °FPartly cloudy.No wind100%30.09 "HgN/A
2:00 AM66 °FPartly cloudy.No wind100%30.09 "HgN/A
1:30 AM68 °FPartly cloudy.No wind94%30.09 "HgN/A
1:00 AM68 °FPartly cloudy.No wind94%30.09 "HgN/A
12:30 AM68 °FPartly cloudy.No wind94%30.12 "HgN/A
12:00 AM68 °FPartly cloudy.No wind94%30.12 "HgN/A
11:30 PM
Sat, Mar 28
68 °FPassing clouds.No wind94%30.12 "HgN/A
10:30 PM70 °FPassing clouds.No wind88%30.12 "HgN/A
10:00 PM70 °FPassing clouds.No wind88%30.12 "HgN/A
9:30 PM70 °FPassing clouds.No wind88%30.12 "HgN/A
9:00 PM70 °FPassing clouds.No wind83%30.12 "HgN/A
8:30 PM70 °FPassing clouds.No wind83%30.12 "HgN/A
8:00 PM70 °FPassing clouds.7 mph88%30.12 "HgN/A
7:30 PM72 °FPassing clouds.7 mph83%30.09 "HgN/A
7:00 PM72 °FPassing clouds.8 mph83%30.07 "HgN/A
Weather by CustomWeather, © 2015

See weather overviewHow to use our weather pages